Regional Weather Roundup
Issued by NWS

Home | Current Version | Previous Version | Text Only | Print | Product List | Glossary On
Versions: 1 2 3 4 5 6 7 8 9 10 11 12 13 14 15 16 17 18 19 20 21 22 23 24 25 26 27 28 29 30 31 32 33 34 35 36 37 38 39 40 41 42 43 44 45 46 47 48 49 50
000
ASUS45 KREV 022310
RWRNV
NEVADA REGIONAL WEATHER ROUNDUP
NATIONAL WEATHER SERVICE RENO NV
300 PM PST MON MAR 02 2015

NOTE: "FAIR" INDICATES FEW OR NO CLOUDS BELOW 12,000 FEET WITH NO
SIGNIFICANT WEATHER AND/OR OBSTRUCTIONS TO VISIBILITY.

NVZ001-003-004-030000-
WESTERN NEVADA

CITY           SKY/WX    TMP DP  RH WIND       PRES   REMARKS
RENO           PTSUNNY   49  22  34 W12       29.77R
CARSON CITY    PTSUNNY   45  27  49 N13G20    29.77R
MINDEN         FAIR      46  23  39 SW7       29.77
SLIDE MTN        N/A     28  28 100 CALM        N/A
PYRAMID LAKE     N/A     45 N/A N/A S13         N/A
FALLON         PTSUNNY   50  24  36 NE3       29.74R
LOVELOCK       PTSUNNY   50  28  42 SW10      29.74R
HAWTHORNE      SUNNY     48  25  40 NW7       29.76R
$$

NVZ002-CAZ072-073-030000-
NORTHERN AND CENTRAL SIERRA

CITY           SKY/WX    TMP DP  RH WIND       PRES   REMARKS
S. LAKE TAHOE  FLURRIES  38  23  55 VRB3      29.77R
TRUCKEE        PTSUNNY   36  27  69 CALM      29.78R
SQUAW VLY 8000   N/A     28  25  86 W7          N/A
SUSANVILLE     PTSUNNY   45  30  57 NW3       29.78R
BLUE CANYON    LGT SNOW  34  30  85 S5        29.83R FOG
MAMMOTH LAKES  PTSUNNY   37  25  60 SE8       29.75S
BRIDGEPORT     PTSUNNY   38  21  50 S6        29.72R
$$

NVZ030-031-036-030000-
NORTHERN NEVADA

CITY           SKY/WX    TMP DP  RH WIND       PRES   REMARKS
ELKO           FLURRIES  38  27  64 NW15      29.69R
WINNEMUCCA     CLOUDY    49  19  30 N12G17    29.72R
WENDOVER       CLOUDY    36  30  80 SW5       29.69S
$$

NVZ035-037-030000-
CENTRAL NEVADA

CITY           SKY/WX    TMP DP  RH WIND       PRES   REMARKS
ELY            LGT SNOW  30  28  92 NE5       29.69R FOG
EUREKA           N/A     31  29  92 W5        29.72R
$$

NVZ013-014-030000-
SOUTH CENTRAL NEVADA

CITY           SKY/WX    TMP DP  RH WIND       PRES   REMARKS
TONOPAH        PTSUNNY   41  29  62 N8        29.75S
$$

NVZ017-020-022-030000-
SOUTHERN NEVADA

CITY           SKY/WX    TMP DP  RH WIND       PRES   REMARKS
LAS VEGAS      PTSUNNY   58  32  37 SW20G29   29.75R
N. LAS VEGAS   PTSUNNY   56  33  42 SW14G21   29.77R
NELLIS AFB     PTSUNNY   58  35  42 S23       29.76R
HENDERSON      MOSUNNY   57  32  38 SW24G30   29.78R
MERCURY        PTSUNNY   43  37  79 NE13      29.79R
$$


USA.gov is the U.S. government's official web portal to all federal, state and local government web resources and services.